アシュブルック-ジャクソン彗星

47P/Ashbrook-Jackson (2009)

English version
Home page
Total 6,336 html files since Dec. 4, 1995
Updated on August 10, 2008

---------------------------------------------------------------------

・ プロフィール

・ 写真集

・ 軌道要素

The following orbital elements are taken from MPC 56802:

Epoch 2009 Feb. 18.0 TT = JDT 2454880.5
T 2009 Jan. 31.9747 TT                                  MPC
q   2.799088             (2000.0)            P               Q
n   0.1182274      Peri.  357.6864      +0.9957297      +0.0915484
a   4.111409       Node   356.9827      -0.0806586      +0.8000966
e   0.319190       Incl.   13.0527      -0.0449068      +0.5928442
P   8.34
From 762 observations 1948-2002, mean residual 0".9.  Nongravitational
     parameters A1 = +0.04, A2 = -0.0037.

・ 星図

・ 光度変化

        m1 = 3.0 + 5 logΔ + 24.0 log r(t + 20)

---------------------------------------------------------------------

軌道要素はMPCのEphemerides and Orbital Elementsに掲載されたものです。
星図は StellaNavigator Ver.2.0 for Windows (アストロアーツ 編著 / アスキー出版局刊) で作成したものです。
光度グラフはComet for Windowsで作成したものです。

---------------------------------------------------------------------

Copyright(C) 1995-2008 Seiichi Yoshida (comet@aerith.net). All rights reserved.